Temp
7 7 7 7 7 6 6 6 5 5 4 4 5 5 5 6 6 6 6 6 6 6 6 6 6 5 5 5 4 4 3 3 3 3 4 3 3 2 1 0 -0 -1
7 7 7 7 7 6 6 6 6 5 5 5 5 5 5 5 5 6 6 6 6 6 6 5 5 5 5 5 4 4 3 3 3 3 3 3 3 2 1 -0 -1 -2
7 7 7 7 7 6 6 6 5 5 5 5 5 5 5 5 5 5 5 5 5 5 5 5 5 5 5 5 4 4 3 3 3 3 3 3 2 1 0 -1 -1 -2
7 7 7 7 7 6 6 5 5 5 5 5 4 4 4 4 4 4 3 4 4 5 5 5 5 5 5 4 4 3 3 2 2 2 2 2 2 1 -0 -1 -2 -3
7 7 7 7 6 6 6 5 5 5 5 4 4 4 4 4 3 3 3 2 3 4 4 4 4 4 4 4 3 3 2 2 2 2 2 2 1 0 -1 -2 -3 -4
7 7 6 6 6 5 5 5 5 5 4 4 4 4 4 4 3 3 3 2 2 3 3 3 3 3 3 3 3 2 2 2 2 1 2 1 1 -1 -2 -3 -4 -5
7 6 6 6 5 5 5 5 5 5 4 4 4 4 4 3 3 3 3 2 2 2 2 2 3 3 3 3 2 1 1 1 1 1 1 1 -0 -2 -3 -3 -4 -5
7 6 5 5 5 5 5 5 5 4 4 4 4 4 3 3 3 3 3 2 2 2 2 2 2 3 2 2 1 1 1 1 1 1 0 -0 -1 -2 -3 -4 -5 -5
6 6 5 5 5 4 4 4 4 4 4 4 3 3 3 3 3 3 2 2 2 2 1 1 1 1 1 1 1 1 1 0 0 -0 0 -0 -1 -2 -3 -4 -5 -5
6 5 5 4 4 4 4 4 4 4 4 4 3 3 3 3 2 2 2 2 1 1 1 0 0 0 1 1 1 1 1 1 -0 -1 -0 -0 -1 -2 -3 -4 -5 -6
5 5 4 4 4 4 4 4 4 3 3 3 3 2 2 2 2 1 1 1 1 1 0 0 0 0 1 0 0 0 0 0 -0 -1 -1 -1 -1 -2 -3 -4 -5 -6
5 4 4 4 4 4 4 4 3 3 3 2 2 2 2 2 1 1 1 1 1 1 0 0 0 0 0 0 -0 -0 -1 -0 -1 -1 -1 -1 -2 -3 -4 -4 -5 -6
4 4 4 4 4 4 3 3 3 2 2 2 2 2 1 1 1 1 1 1 1 0 0 0 -0 -1 -1 -0 -0 -0 -1 -1 -1 -2 -2 -2 -3 -4 -5 -5 -6 -7
5 5 4 4 3 3 3 2 2 2 1 1 1 1 1 1 1 1 1 0 0 0 -0 -1 -2 -2 -2 -1 -0 -1 -1 -1 -2 -2 -3 -3 -4 -5 -6 -6 -7 -8
5 4 4 3 3 2 2 2 1 1 1 1 1 1 1 1 1 1 0 -0 -1 -1 -1 -2 -2 -2 -1 -0 -0 -1 -1 -2 -2 -2 -3 -3 -5 -6 -6 -7 -8 -8
4 4 3 3 2 2 1 1 1 0 0 0 -0 0 -0 -0 -0 -0 -0 -1 -1 -2 -3 -3 -3 -2 -1 -1 -1 -0 -1 -2 -3 -3 -3 -4 -5 -6 -7 -8 -9 -9
4 3 2 2 1 1 1 0 0 -0 -0 -1 -1 -1 -1 -1 -1 -1 -1 -2 -2 -3 -3 -3 -3 -2 -1 -2 -1 -1 -1 -2 -2 -3 -4 -5 -5 -6 -7 -9 -9 -9
3 2 2 1 1 0 -0 -0 -1 -1 -1 -1 -2 -2 -2 -2 -2 -2 -2 -3 -3 -4 -4 -3 -2 -2 -2 -2 -2 -2 -2 -2 -3 -4 -5 -5 -6 -7 -8 -9 -9 -10
2 2 1 0 -0 -0 -1 -1 -1 -2 -2 -2 -2 -2 -3 -3 -3 -3 -3 -4 -4 -4 -4 -3 -3 -2 -3 -3 -3 -4 -4 -4 -4 -4 -5 -6 -6 -7 -9 -10 -10 -10
1 1 0 -1 -1 -1 -2 -2 -2 -2 -3 -3 -3 -3 -3 -4 -4 -4 -4 -4 -4 -4 -4 -4 -3 -3 -4 -5 -5 -5 -5 -5 -5 -5 -6 -7 -7 -8 -9 -10 -10 -10
1 0 -1 -1 -2 -2 -2 -3 -3 -3 -3 -4 -4 -4 -4 -4 -4 -4 -4 -5 -5 -5 -5 -5 -3 -4 -5 -6 -6 -6 -7 -6 -6 -7 -8 -8 -9 -9 -10 -10 -10 -10
0 -0 -1 -2 -2 -3 -3 -4 -4 -4 -4 -4 -4 -4 -5 -5 -5 -5 -5 -6 -6 -5 -6 -5 -4 -4 -6 -6 -6 -6 -7 -7 -7 -8 -9 -9 -9 -10 -10 -10 -10 -10
-0 -1 -2 -2 -3 -4 -4 -4 -4 -4 -5 -5 -5 -5 -6 -6 -6 -6 -6 -6 -6 -6 -6 -5 -5 -5 -6 -6 -6 -6 -7 -7 -8 -9 -9 -9 -10 -10 -10 -10 -10 -10
-1 -1 -2 -3 -4 -4 -4 -5 -5 -5 -5 -5 -5 -6 -6 -6 -7 -7 -7 -7 -6 -6 -6 -6 -5 -6 -6 -6 -6 -6 -7 -8 -8 -9 -9 -9 -9 -10 -10 -10 -10 -10
-1 -2 -3 -3 -4 -4 -5 -5 -5 -6 -6 -6 -6 -6 -7 -7 -7 -7 -8 -8 -7 -7 -7 -6 -6 -6 -7 -7 -6 -7 -7 -8 -9 -9 -9 -9 -10 -10 -10 -10 -10 -10
-2 -2 -3 -4 -4 -5 -5 -5 -6 -6 -7 -7 -7 -7 -7 -8 -8 -8 -8 -8 -8 -8 -8 -7 -6 -7 -7 -7 -7 -7 -7 -8 -9 -9 -9 -10 -10 -10 -11 -10 -10 -10
Height
732 735 737 739 741 742 745 747 749 751 752 753 754 756 759 762 765 768 770 773 776 779 782 785 787 788 790 791 792 793 795 796 797 798 797 798 799 800 802 803 804 805
728 731 733 735 737 738 740 742 745 747 748 749 751 753 756 759 761 764 766 768 771 774 777 781 783 785 787 788 789 790 792 793 794 795 795 795 797 798 800 802 803 804
722 725 727 729 730 733 736 738 741 743 745 747 749 751 754 756 758 760 762 765 767 770 773 776 779 781 783 785 786 787 788 790 791 792 792 793 794 796 798 800 801 803
716 718 720 723 726 729 733 735 737 738 741 743 745 748 751 754 756 758 760 762 764 766 769 772 774 777 779 781 783 784 785 786 788 789 790 790 792 793 796 798 799 801
711 713 716 719 723 726 729 730 732 734 737 739 742 745 748 751 754 756 758 760 762 765 766 768 770 773 775 777 779 780 781 782 784 786 787 787 789 791 793 795 797 799
708 710 712 715 718 722 725 725 728 730 733 736 739 742 744 747 750 753 756 758 761 764 765 766 767 769 771 773 775 776 777 778 780 782 783 785 787 789 791 793 795 797
703 705 708 711 715 718 720 722 725 727 729 732 735 737 740 743 746 749 752 755 758 761 763 764 765 766 768 770 772 773 774 775 776 778 780 782 784 786 788 790 793 795
697 700 704 708 710 713 715 718 720 723 726 729 731 733 736 739 742 745 748 751 754 758 760 762 763 764 765 767 768 770 771 772 773 775 777 779 781 784 786 788 790 792
692 695 699 702 704 707 709 712 715 718 721 724 727 730 732 735 738 741 744 747 751 754 757 759 761 762 763 765 766 767 768 769 771 772 774 776 778 780 782 785 786 788
687 690 693 695 697 700 702 706 710 713 716 719 723 726 729 732 736 738 741 743 746 750 753 755 757 759 761 763 764 765 766 767 769 770 772 773 775 777 779 781 783 784
682 685 687 689 690 693 696 700 704 708 711 714 717 721 725 728 732 735 737 739 742 745 748 751 753 756 758 760 761 763 764 765 766 768 769 771 772 774 776 778 780 781
677 680 681 682 684 687 690 694 698 702 705 709 712 716 720 724 727 730 733 735 738 741 744 747 750 752 754 756 758 759 761 762 764 765 767 768 770 772 774 776 778 779
670 672 673 675 678 681 685 689 693 696 700 703 707 711 715 718 722 725 728 732 734 737 740 743 746 748 750 753 755 756 757 759 761 763 764 766 768 770 772 773 775 777
662 664 666 670 674 678 682 684 687 691 694 699 703 706 710 713 716 720 724 728 731 734 737 739 742 744 746 749 751 753 754 756 758 760 762 764 766 767 770 771 772 774
657 660 664 668 672 675 677 680 682 686 690 694 697 701 705 708 712 716 719 724 727 730 733 736 738 741 742 745 747 748 751 753 755 758 759 761 763 765 767 769 770 772
654 658 661 665 668 670 673 676 678 682 685 689 693 697 701 705 708 712 715 719 723 726 729 732 734 737 739 741 743 745 747 749 752 754 756 758 760 763 765 766 768 769
649 653 656 659 662 666 669 673 676 679 682 686 690 693 697 701 704 708 711 715 719 722 725 728 731 733 736 738 740 742 743 746 748 750 752 754 756 759 761 763 765 765
644 647 650 654 658 662 666 670 673 677 681 684 687 690 693 697 700 704 708 711 715 719 722 725 727 730 733 734 736 739 741 743 745 747 749 751 753 756 758 760 761 762
640 643 646 649 653 657 662 666 670 674 677 680 683 687 691 694 697 701 704 708 711 715 718 721 724 727 730 732 734 736 739 741 743 745 747 749 752 754 757 759 760 761
637 640 643 646 650 655 659 663 666 669 673 677 680 684 688 691 694 697 701 704 707 711 715 718 721 725 728 730 733 735 737 740 742 744 746 749 751 754 756 759 760 760
634 637 640 644 648 652 656 659 662 666 670 673 677 680 684 687 690 693 696 700 704 708 712 715 719 723 726 729 731 734 736 738 740 742 745 747 750 753 756 758 759 759
631 634 637 640 645 649 652 656 659 662 666 670 674 678 682 685 688 691 693 697 701 705 709 712 716 720 724 726 729 732 733 735 737 739 742 744 747 750 753 755 756 756
629 632 634 637 641 645 648 651 655 659 663 667 671 676 680 683 686 689 691 695 698 702 705 709 714 718 721 724 726 729 730 731 733 735 738 741 744 747 749 750 752 752
628 630 632 635 637 640 644 648 652 657 660 664 669 673 677 680 683 686 690 692 695 699 703 707 711 715 719 721 723 725 726 727 729 731 734 737 740 743 745 747 748 749
629 631 633 635 638 640 644 647 651 655 659 663 668 671 675 679 681 684 687 690 693 696 700 704 708 712 715 717 720 722 723 724 726 728 730 733 736 739 741 743 744 745
628 632 634 636 639 642 645 648 651 654 658 662 666 669 672 676 679 682 684 687 690 693 697 701 704 707 711 713 716 718 719 720 723 724 726 728 731 735 737 739 741 742
Wind_Speed
40 40 40 40 40 40 39 40 40 41 42 43 45 46 47 46 46 44 42 40 37 35 32 29 26 24 23 22 20 18 16 14 12 10 8 6 6 7 8 9 9 10
42 42 41 41 41 41 41 41 42 42 44 44 45 45 45 46 46 45 45 42 40 37 34 31 28 26 25 23 22 20 18 16 14 11 9 8 8 9 9 10 10 10
44 44 44 45 44 43 42 41 41 42 43 43 43 44 44 45 45 45 45 44 42 40 36 33 30 28 27 25 23 21 19 17 15 13 12 10 10 10 10 11 11 11
46 47 47 47 45 43 41 40 41 42 42 42 42 42 42 43 43 44 44 44 43 41 38 35 33 31 28 26 25 23 20 18 16 15 14 12 12 12 12 13 12 12
47 47 47 46 44 41 40 41 43 42 42 42 41 41 41 41 42 42 43 43 42 41 39 37 34 32 30 28 26 24 22 21 19 18 16 14 14 14 14 14 13 13
45 46 47 45 43 41 41 42 43 42 42 42 41 41 42 42 42 42 43 43 42 40 39 38 36 34 32 30 28 26 24 23 21 20 17 16 15 15 15 15 15 14
45 45 45 43 41 41 42 42 42 41 41 41 41 41 42 42 43 43 43 43 42 41 40 39 38 36 34 32 30 28 26 24 22 21 18 17 16 16 16 16 15 15
46 43 42 41 41 41 42 42 41 41 41 41 41 41 42 43 43 43 43 43 43 43 41 40 39 37 35 33 31 30 27 25 23 21 20 18 18 18 17 17 16 15
44 42 41 41 42 42 43 43 42 41 41 41 41 41 41 42 43 43 43 43 44 44 42 41 40 38 36 34 32 30 28 26 24 22 20 19 19 19 18 17 17 16
42 41 40 41 43 45 45 44 43 42 42 42 42 41 41 42 42 43 43 44 44 44 43 42 40 38 36 34 32 29 27 26 24 22 21 19 19 19 19 19 18 18
40 40 41 43 45 45 45 45 43 42 42 42 42 41 41 41 41 42 43 44 45 45 44 43 41 39 37 34 31 29 26 25 23 22 21 20 20 19 19 19 19 19
40 40 43 45 46 46 45 44 43 42 42 42 42 41 41 42 42 43 44 44 45 45 44 43 41 39 37 35 32 28 26 24 23 22 21 20 20 19 19 19 19 19
41 44 46 47 46 45 44 43 42 42 42 41 41 41 42 42 43 44 44 45 45 44 44 43 41 39 37 34 31 29 27 26 24 23 22 20 20 19 19 19 19 19
45 47 47 46 44 42 41 41 41 41 41 41 41 42 43 44 44 44 44 44 44 44 44 42 41 39 37 34 32 29 28 27 25 24 23 21 20 20 19 19 19 18
44 43 42 41 40 39 39 40 41 41 40 41 42 42 43 43 44 45 44 44 43 43 42 41 40 39 37 35 33 31 29 27 25 24 23 22 22 20 19 19 18 17
39 38 37 38 38 39 40 40 40 40 40 41 41 42 42 43 43 43 44 44 43 42 41 40 40 39 37 35 32 30 29 28 27 26 24 23 22 20 19 18 17 16
36 36 37 38 39 39 39 39 39 39 40 40 40 41 41 42 43 43 43 43 43 42 41 41 40 39 36 33 31 30 30 29 28 27 26 24 22 20 20 18 15 14
35 36 36 37 37 38 38 38 38 38 39 39 40 40 41 41 42 42 42 41 41 40 41 41 40 38 35 34 32 31 30 29 29 28 26 24 22 21 19 17 14 13
34 35 35 36 37 37 37 37 38 39 39 40 40 40 40 40 40 40 40 40 40 41 41 41 40 38 35 32 31 30 30 29 28 27 25 23 21 19 16 15 14 14
33 34 35 35 35 36 36 37 39 39 39 39 39 39 39 39 40 40 40 40 41 41 40 40 39 37 33 29 28 28 28 28 26 24 22 20 17 15 14 14 15 16
33 34 33 33 34 35 36 37 38 38 37 38 38 39 40 40 40 41 40 40 40 40 39 38 39 36 30 27 27 26 25 25 23 21 19 16 15 14 14 16 16 16
33 33 33 33 35 35 36 37 37 37 37 37 37 37 37 38 38 39 40 39 39 39 38 37 37 34 29 26 27 26 24 23 22 21 19 18 17 17 17 18 17 16
33 34 34 34 35 36 36 36 36 36 36 36 36 35 35 36 36 36 37 38 38 38 37 36 36 33 27 26 27 26 26 25 23 23 22 21 20 20 20 19 17 15
32 33 34 34 36 37 36 36 35 35 35 36 37 36 35 35 35 34 35 37 37 38 36 36 35 31 27 27 27 26 28 28 26 25 24 23 22 21 19 18 15 13
29 30 31 32 33 33 33 33 33 33 34 35 35 35 34 34 34 34 34 35 36 36 35 34 35 31 27 27 27 26 28 30 28 26 25 24 22 20 18 16 14 12
28 29 30 31 31 30 29 31 32 32 33 34 34 34 34 34 34 35 34 34 34 34 33 34 36 34 30 29 28 27 27 30 29 28 26 25 22 20 19 17 14 13
Wind_Direction
213 214 215 216 217 217 216 215 214 214 214 213 213 214 213 213 213 211 209 208 208 208 208 207 205 204 203 202 202 202 202 205 208 209 211 213 214 216 220 224 228 233
215 215 216 217 218 218 218 218 217 217 217 216 216 215 215 214 213 211 210 208 207 207 206 205 204 203 203 202 202 201 201 204 206 208 210 211 211 215 220 223 225 231
215 216 217 218 219 219 219 218 219 219 219 219 217 216 215 214 213 212 210 209 207 206 204 203 203 203 203 203 202 201 202 205 207 207 208 207 209 213 217 220 223 228
216 217 218 220 220 220 219 218 219 220 219 219 218 217 215 214 213 211 209 208 207 205 203 202 202 202 202 202 202 202 203 206 206 206 206 205 207 212 215 219 223 229
218 218 219 220 220 220 219 219 220 219 218 219 218 216 215 214 213 211 209 208 207 205 202 200 201 201 200 200 201 202 203 203 203 204 205 205 207 211 215 219 223 230
219 220 220 221 220 219 219 220 221 220 219 219 217 216 215 214 214 213 210 208 206 205 203 200 200 200 200 200 201 202 203 202 201 202 204 205 206 210 214 219 223 228
221 221 220 220 220 219 220 221 221 221 220 218 217 217 215 214 214 213 211 208 206 205 204 202 201 200 200 201 201 201 202 202 201 201 202 202 205 208 212 217 222 227
220 221 219 219 219 220 221 221 221 221 220 218 217 217 215 214 213 212 210 208 206 205 204 204 203 202 201 201 201 200 199 200 200 200 200 200 203 206 210 215 222 227
219 219 218 217 218 219 220 221 221 220 219 218 217 216 214 213 212 211 208 206 205 204 204 204 203 203 202 202 201 201 199 199 199 200 200 200 202 206 210 215 220 225
218 217 216 216 217 218 219 219 219 219 218 218 216 215 213 212 211 210 207 205 203 203 203 203 203 203 203 203 203 202 201 200 198 199 200 202 205 208 211 216 221 224
217 215 215 216 217 218 218 218 217 216 216 215 213 212 211 209 208 207 206 204 203 203 203 203 203 203 203 203 202 202 201 200 199 199 201 203 207 210 213 218 222 226
216 214 215 217 217 217 217 216 215 213 213 212 210 209 208 206 205 205 205 204 204 204 203 203 204 203 203 202 200 199 199 199 199 200 202 204 207 211 216 221 224 227
215 215 217 218 217 216 215 213 212 211 210 209 208 207 205 204 203 203 204 205 204 204 204 204 203 201 201 200 198 198 198 198 199 200 202 204 208 213 217 223 228 229
217 218 218 217 216 215 213 210 209 208 207 206 205 204 203 203 202 202 203 203 204 205 205 204 202 199 199 198 198 198 198 198 198 199 201 204 207 215 219 223 228 229
219 218 217 216 214 212 210 208 207 205 204 204 203 202 203 203 202 202 201 201 202 203 203 201 200 200 200 199 198 197 197 197 198 199 202 204 207 212 218 222 226 228
217 215 213 212 210 209 208 205 203 202 201 201 201 201 200 200 200 200 200 200 200 200 199 199 199 200 201 200 199 199 197 196 197 199 201 204 206 209 214 219 222 226
212 210 208 208 207 206 204 202 200 199 198 198 198 197 198 198 197 197 198 199 199 198 198 198 199 201 200 199 199 200 200 197 196 198 199 202 205 206 209 214 218 222
207 205 203 203 203 202 201 199 198 197 196 196 195 195 195 195 195 195 196 197 197 197 198 198 200 201 199 198 198 199 200 199 197 196 197 199 202 205 209 211 213 215
204 200 200 200 199 198 197 195 195 195 195 195 194 193 193 193 193 194 194 195 196 197 198 200 201 199 196 195 195 196 198 198 197 197 197 198 200 204 208 209 209 210
200 198 197 197 196 194 193 193 193 194 194 193 192 191 191 192 192 193 194 195 196 197 198 200 200 197 193 190 189 191 196 196 195 194 195 197 199 203 210 212 212 212
198 196 194 193 192 191 191 191 192 192 191 191 191 191 192 193 192 193 194 194 196 196 196 199 199 194 189 186 184 184 189 191 191 190 193 197 201 206 212 213 212 215
196 193 191 190 189 188 189 190 190 190 190 189 190 191 192 193 193 193 193 193 194 195 195 197 197 191 185 185 183 179 181 187 190 192 193 195 199 204 209 212 217 225
196 192 189 188 187 187 189 190 189 189 189 187 187 188 190 191 192 192 192 192 192 193 195 196 193 187 183 184 182 178 181 186 189 189 190 193 199 205 210 217 227 234
196 193 190 188 187 188 189 188 188 187 187 187 187 188 189 190 190 190 191 193 193 193 195 195 190 185 183 184 181 180 183 187 188 187 189 194 199 204 214 223 228 230
196 194 192 189 189 190 188 186 185 185 186 187 187 188 188 188 188 188 189 191 193 193 194 194 189 183 183 185 181 181 187 191 189 187 188 193 197 202 213 221 222 224
196 195 194 192 190 189 187 185 184 184 183 185 186 187 186 186 187 188 188 189 191 192 193 194 190 183 183 186 182 182 190 193 191 189 189 190 193 199 205 211 218 224